Location: Newark
(43.4306°N, 0.3089°E)
Time: 02:21:31
(UTC+00:00)

Vanguard 3 - Pass Details

Date: 03 September 2019
Orbit: 508 x 3262 km, 33.3° (Epoch: 17 October)

Event Time Altitude Azimuth Distance (km) Brightness Sun altitude
Rises 12:25:30 0° 228° (SW) 7,184 12.4 53.6°
Reaches altitude 10° 12:31:02 10° 222° (SW) 6,018 12.3 53.4°
Maximum altitude 12:46:49 40° 162° (SSE) 3,243 11.5 52.6°
Drops below altitude 10° 12:57:15 10° 98° (E) 4,041 10.7 51.8°
Sets 13:00:08 0° 90° (E) 4,699 10.9 51.6°
